[[{"header":{"parameterUnit":"m.s-1","parameterCategory":1,"la1":30.2991,"la2":30.254,"lo1":-89.0895,"lo2":-89.0444,"dy":0.0017,"dx":0.0017,"nx":28,"ny":28,"refTime":"2025-11-23T09:00:00:Z","depth":0,"parameterNumber":2,"parameterNumberName":"U-component_of_WINDS"},"data":[0,0,0,0,0,0,0,0,0,0,0,0,0,0,0,0,0,0,0,0,0,0,0,0,0,0,0,0,0,0,0,0,0,0,0,0,0,0,0,0,0,0,0,0,0,0,0,0,0,0,0,0,0,0,0,0,0,0,-2.204,-2.204,0,-2.2048,-2.2048,-2.2048,-2.1955,-2.1952,-2.195,-2.1947,-2.1957,-2.1959,-2.1962,0,0,0,0,0,0,0,0,0,0,0,0,0,-2.1944,-2.1946,-2.204,-2.204,-2.204,-2.2048,-2.2048,-2.2048,-2.1955,-2.1952,-2.1949,-2.1946,-2.1956,-2.1959,-2.1962,0,0,0,0,0,0,0,0,0,0,0,0,0,-2.1972,-2.1947,-2.204,-2.1995,-2.1991,-2.2048,-2.2048,-2.2048,-2.1956,-2.1952,-2.1948,-2.1945,-2.1955,-2.1959,-2.1963,-2.2064,0,0,-2.1975,-2.1976,0,0,0,0,0,0,0,0,-2.1971,-2.1976,-2.2001,-2.1998,-2.1993,-2.1996,-2.2018,-2.2054,-2.1957,-2.1969,-2.1947,-2.1943,-2.1973,-2.1975,-2.1985,-2.2064,-2.2065,-2.1975,-2.1977,-2.1979,-2.198,0,0,0,0,0,0,0,-2.1969,-2.1975,-2.2043,-2.2002,-2.1997,-2.1974,-2.1974,-2.2024,-2.1993,-2.1968,-2.1961,-2.1963,-2.197,-2.1982,-2.1985,-2.2065,-2.1975,-2.1979,-2.1981,-2.1982,-2.2227,-2.2231,0,0,0,0,0,0,-2.1973,-2.1974,-2.2043,-2.2043,-2.1972,-2.1979,-2.1978,-2.1999,-2.1992,-2.1987,-2.1966,-2.1959,-2.1977,-2.198,-2.1985,-2.2103,-2.1979,-2.1983,-2.1985,-2.2223,-2.2228,-2.2232,0,0,0,0,0,0,-2.1971,-2.198,-2.2042,-2.2007,-2.2013,-2.1984,-2.2009,-2.2002,-2.2013,-2.1991,-2.1985,-2.1984,-2.1974,-2.1979,-2.2045,-2.2102,-2.1985,-2.1988,-2.2218,-2.2224,-2.223,-2.234,0,0,0,0,0,0,-2.1969,-2.198,-2.2018,-2.2008,-2.2015,-2.2103,-2.2012,-2.2005,-2.202,-2.201,-2.2006,-2.2001,-2.1971,-2.2039,-2.2049,-2.2105,-2.1991,-2.2213,-2.2221,-2.2228,-2.2331,-2.2349,-2.2365,0,0,0,0,0,-2.1966,-2.2049,-2.2021,-2.203,-2.2063,-2.2106,-2.211,-2.2074,-2.2025,-2.2063,-2.2049,-2.2001,-2.2094,-2.2047,-2.2057,-2.2115,-2.2209,-2.2218,-2.2227,-2.2324,-2.2346,-2.2364,0,0,0,0,0,0,-2.2068,-2.2047,-2.2015,-2.2098,-2.2105,-2.209,-2.2138,-2.2098,-2.2119,-2.2109,-2.2063,-2.2063,-2.2136,-2.2132,-2.208,-2.2212,-2.2143,-2.2155,-2.2213,-2.2233,-2.225,-2.225,-2.1995,0,0,0,0,0,-2.21,-2.2137,-2.2117,-2.2192,-2.2196,-2.2167,-2.2184,-2.2156,-2.216,-2.2163,-2.2153,-2.216,-2.219,-2.2211,-2.2238,-2.233,-2.2327,-2.2375,-2.2391,-2.2405,-2.2416,-2.2464,-2.2485,-2.2263,-2.2262,-2.2262,0,0,-2.2167,-2.216,-2.2186,-2.2212,-2.2214,-2.2253,-2.217,-2.2215,-2.2244,-2.217,-2.2231,-2.2224,-2.2228,-2.2307,-2.2342,-2.2306,-2.2477,-2.2417,-2.2428,-2.2432,-2.2476,-2.2497,-2.2515,-2.2269,-2.2268,-2.2267,0,0,-2.2308,-2.2307,-2.2369,-2.2372,-2.2375,-2.2354,-2.2369,-2.2361,-2.2353,-2.2414,-2.2359,-2.2392,-2.2446,-2.2451,-2.2461,-2.2603,-2.256,-2.2613,-2.2701,-2.2748,-2.2765,-2.2781,-2.2832,-2.285,-2.2624,-2.2624,-2.2624,0,-2.2391,-2.2448,-2.2406,-2.2455,-2.2468,-2.2402,-2.2464,-2.2469,-2.2481,-2.2492,-2.2451,-2.2516,-2.2515,-2.2594,-2.2629,-2.2638,-2.2654,-2.2614,-2.2766,-2.2781,-2.2795,-2.2843,-2.2862,-2.263,-2.263,-2.2629,-2.2628,0,-2.255,-2.259,-2.264,-2.2652,-2.267,-2.2726,-2.2693,-2.2716,-2.2685,-2.2669,-2.2731,-2.2726,-2.2751,-2.2767,-2.2738,-2.2842,-2.282,-2.2774,-2.2703,-2.2823,-2.2867,-2.2885,-2.264,-2.2637,-2.2635,-2.2634,0,0,-2.2758,-2.2745,-2.2764,-2.2769,-2.2766,-2.2797,-2.2849,-2.2872,-2.2893,-2.2903,-2.2946,-2.2992,-2.2949,-2.296,-2.293,-2.2972,-2.3085,-2.292,-2.2919,-2.2951,-2.3199,-2.3235,-2.3257,-2.3056,-2.3059,-2.3062,-2.3199,0,-2.2896,-2.2984,-2.2947,-2.3039,-2.3075,-2.3012,-2.3058,-2.3061,-2.3047,-2.3076,-2.306,-2.3093,-2.3034,-2.304,-2.3078,-2.3063,-2.3134,-2.3052,-2.3095,-2.3098,-2.3097,-2.328,-2.3317,-2.3447,-2.3216,-2.3219,-2.3221,0,-2.307,-2.3086,-2.3181,-2.3172,-2.3185,-2.3227,-2.3245,-2.3273,-2.3275,-2.3262,-2.3274,-2.3235,-2.3285,-2.3214,-2.3283,-2.3228,-2.3243,-2.3238,-2.3242,-2.3246,-2.3167,-2.3289,-2.3488,-2.3508,-2.3248,-2.3246,-2.3244,0,-2.3212,-2.3258,-2.3321,-2.3326,-2.3317,-2.3347,-2.3345,-2.3343,-2.3359,-2.3375,-2.3385,-2.3406,-2.3418,-2.3436,-2.3404,-2.3355,-2.3477,-2.3403,-2.3467,-2.3469,-2.3497,-2.3496,-2.3702,-2.3506,-2.3506,-2.3505,-2.3505,0,-2.3371,-2.3432,-2.3384,-2.3423,-2.3489,-2.3446,-2.3513,-2.3503,-2.3502,-2.3538,-2.3484,-2.3519,-2.3474,-2.3504,-2.3479,-2.354,-2.3546,-2.3536,-2.3529,-2.3542,-2.3543,-2.3552,-2.3542,-2.351,-2.3509,-2.3508,-2.3507,0,-2.3542,-2.3513,-2.3577,-2.3562,-2.3559,-2.3609,-2.3596,-2.3631,-2.3612,-2.3658,-2.3666,-2.3637,-2.367,-2.3639,-2.3671,-2.3654,-2.3735,-2.3714,-2.3734,-2.3729,-2.3795,-2.379,-2.4015,-2.4042,-2.3828,-2.383,-2.3832,0,-2.3646,-2.3691,-2.368,-2.37,-2.37,-2.3733,-2.3749,-2.3708,-2.3726,-2.3732,-2.3766,-2.3794,-2.3815,-2.387,-2.3852,-2.3876,-2.3855,-2.3933,-2.3859,-2.387,-2.3857,-2.3855,-2.3859,-2.3948,-2.3951,-2.3953,-2.3954,0,-2.3833,-2.3816,-2.384,-2.386,-2.388,-2.3893,-2.3903,-2.3922,-2.3879,-2.3903,-2.3935,-2.3951,-2.3983,-2.4011,-2.4029,-2.4026,-2.3984,-2.3978,-2.3994,-2.4008,-2.4017,-2.4013,-2.3776,-2.3973,-2.3971,-2.397,-2.3969,-2.3968,-2.3974,-2.4011,-2.4009,-2.4038,-2.404,-2.405,-2.4082,-2.4066,-2.4093,-2.4115,-2.4088,-2.4128,-2.4129,-2.4148,-2.415,-2.4181,-2.4148,-2.4172,-2.4178,-2.4184,-2.4194,-2.4012,-2.4184,-2.4183,-2.4183,-2.4182,-2.4182,0,-2.4158,-2.4153,-2.418,-2.4195,-2.4217,-2.4174,-2.4182,-2.4204,-2.4239,-2.4243,-2.4264,-2.4301,-2.4328,-2.4312,-2.4335,-2.4363,-2.4344,-2.437,-2.4368,-2.4368,-2.4222,-2.4206,-2.4385,-2.4385,-2.4385,-2.4385,-2.4385,-2.4385,-2.4257,-2.4317,-2.43,-2.436,-2.4355,-2.4393,-2.4401,-2.441,-2.4412,-2.4456,-2.4478,-2.4466,-2.4462,-2.4484,-2.4507,-2.4502,-2.4513,-2.4547,-2.4534,-2.4398,-2.4378,-2.4359,-2.4344,-2.4549,-2.455,-2.4678,-2.4679,-2.468]},{"header":{"parameterUnit":"m.s-1","parameterCategory":1,"la1":30.2991,"la2":30.254,"lo1":-89.0895,"lo2":-89.0444,"dy":0.0017,"dx":0.0017,"nx":28,"ny":28,"refTime":"2025-11-23T09:00:00:Z","depth":0,"parameterNumber":3,"parameterNumberName":"V-component_of_WINDS"},"data":[0,0,0,0,0,0,0,0,0,0,0,0,0,0,0,0,0,0,0,0,0,0,0,0,0,0,0,0,0,0,0,0,0,0,0,0,0,0,0,0,0,0,0,0,0,0,0,0,0,0,0,0,0,0,0,0,0,0,-3.0308,-3.0308,0,-3.0372,-3.0373,-3.0374,-3.0367,-3.0366,-3.0365,-3.0364,-3.0426,-3.0429,-3.0431,0,0,0,0,0,0,0,0,0,0,0,0,0,-3.0173,-3.0175,-3.0308,-3.0308,-3.0309,-3.0372,-3.0373,-3.0374,-3.0368,-3.0366,-3.0365,-3.0364,-3.0425,-3.0428,-3.0431,0,0,0,0,0,0,0,0,0,0,0,0,0,-3.0234,-3.0176,-3.0307,-3.0314,-3.0315,-3.0372,-3.0373,-3.0374,-3.0368,-3.0366,-3.0365,-3.0363,-3.0424,-3.0428,-3.0432,-3.0485,0,0,-3.0443,-3.0445,0,0,0,0,0,0,0,0,-3.023,-3.0239,-3.0312,-3.0313,-3.0315,-3.036,-3.0348,-3.0411,-3.0368,-3.0348,-3.0364,-3.0363,-3.0405,-3.041,-3.0426,-3.0488,-3.0491,-3.0444,-3.0446,-3.0448,-3.0449,0,0,0,0,0,0,0,-3.0226,-3.0236,-3.0333,-3.0313,-3.0315,-3.0311,-3.0318,-3.036,-3.0384,-3.0349,-3.0349,-3.0357,-3.0406,-3.0422,-3.0427,-3.0492,-3.0444,-3.0447,-3.045,-3.0451,-3.0599,-3.06,0,0,0,0,0,0,-3.0221,-3.0232,-3.0331,-3.0335,-3.0268,-3.0315,-3.0323,-3.0347,-3.0383,-3.0387,-3.0358,-3.0356,-3.0416,-3.0423,-3.0429,-3.0493,-3.0448,-3.0451,-3.0454,-3.0597,-3.0599,-3.0601,0,0,0,0,0,0,-3.0218,-3.023,-3.0328,-3.0284,-3.0296,-3.0319,-3.0346,-3.0349,-3.0366,-3.039,-3.0394,-3.0371,-3.0415,-3.0424,-3.0471,-3.0495,-3.0453,-3.0457,-3.0595,-3.0598,-3.06,-3.0621,0,0,0,0,0,0,-3.0214,-3.0229,-3.0251,-3.0284,-3.0298,-3.0371,-3.0348,-3.0352,-3.0373,-3.0371,-3.0403,-3.0407,-3.0415,-3.0465,-3.0475,-3.0499,-3.046,-3.0593,-3.0596,-3.0599,-3.0619,-3.0624,-3.0629,0,0,0,0,0,-3.021,-3.0254,-3.0252,-3.0264,-3.0327,-3.0372,-3.038,-3.039,-3.0375,-3.0396,-3.0411,-3.0406,-3.0491,-3.047,-3.0481,-3.0507,-3.0592,-3.0596,-3.0599,-3.0616,-3.0623,-3.0629,0,0,0,0,0,0,-3.0222,-3.0258,-3.0257,-3.0314,-3.034,-3.0371,-3.0399,-3.0397,-3.0427,-3.0424,-3.0433,-3.044,-3.0488,-3.0502,-3.0479,-3.056,-3.0539,-3.0545,-3.0548,-3.0555,-3.056,-3.0555,-3.0463,0,0,0,0,0,-3.0231,-3.0267,-3.0296,-3.0343,-3.0357,-3.0375,-3.0396,-3.0401,-3.0428,-3.0439,-3.0458,-3.0483,-3.0515,-3.0536,-3.0567,-3.0621,-3.0626,-3.0644,-3.0649,-3.0653,-3.0658,-3.0685,-3.0693,-3.0613,-3.0613,-3.0613,0,0,-3.025,-3.0275,-3.0297,-3.0346,-3.0368,-3.0402,-3.0385,-3.0423,-3.0448,-3.0444,-3.049,-3.0505,-3.0533,-3.0583,-3.0607,-3.0597,-3.0681,-3.0658,-3.0661,-3.0663,-3.069,-3.0697,-3.0704,-3.0615,-3.0615,-3.0615,0,0,-3.0303,-3.0327,-3.0368,-3.0389,-3.0422,-3.0434,-3.0443,-3.0475,-3.0485,-3.0531,-3.0528,-3.0557,-3.0613,-3.0633,-3.0651,-3.071,-3.0705,-3.072,-3.0746,-3.0773,-3.0779,-3.0785,-3.0804,-3.0812,-3.0724,-3.0725,-3.0725,0,-3.0323,-3.0378,-3.0388,-3.0427,-3.0448,-3.0446,-3.0487,-3.0506,-3.0547,-3.056,-3.0549,-3.0619,-3.0638,-3.0692,-3.0706,-3.0721,-3.0731,-3.0716,-3.0778,-3.0784,-3.0789,-3.0808,-3.0815,-3.0726,-3.0726,-3.0726,-3.0726,0,-3.0399,-3.0436,-3.0465,-3.0506,-3.053,-3.0569,-3.0584,-3.0606,-3.0609,-3.0621,-3.0667,-3.069,-3.0725,-3.0739,-3.0741,-3.0793,-3.0785,-3.0776,-3.0756,-3.0798,-3.0815,-3.0823,-3.0728,-3.0728,-3.0727,-3.0727,0,0,-3.0462,-3.0507,-3.0517,-3.0535,-3.057,-3.0598,-3.0636,-3.0672,-3.069,-3.0718,-3.0748,-3.0795,-3.0786,-3.0806,-3.0811,-3.0834,-3.0878,-3.0822,-3.0823,-3.083,-3.0934,-3.094,-3.0948,-3.0875,-3.0876,-3.0878,-3.0931,0,-3.0517,-3.0586,-3.0597,-3.0657,-3.069,-3.0689,-3.0721,-3.0745,-3.0758,-3.0786,-3.0799,-3.0832,-3.0819,-3.083,-3.0854,-3.0868,-3.0898,-3.0864,-3.0902,-3.0903,-3.0894,-3.0957,-3.0964,-3.1013,-3.0938,-3.0939,-3.094,0,-3.0592,-3.0622,-3.0686,-3.0715,-3.073,-3.0759,-3.0791,-3.082,-3.0846,-3.0853,-3.0875,-3.0876,-3.0913,-3.0892,-3.0941,-3.0918,-3.0934,-3.0943,-3.0945,-3.0948,-3.0923,-3.0961,-3.1029,-3.1036,-3.0951,-3.095,-3.0949,0,-3.0629,-3.0686,-3.0731,-3.0746,-3.0782,-3.0802,-3.0818,-3.0843,-3.0863,-3.0891,-3.0903,-3.0935,-3.0951,-3.0975,-3.0983,-3.0967,-3.1032,-3.1012,-3.1037,-3.1037,-3.105,-3.1049,-3.1121,-3.1063,-3.1063,-3.1063,-3.1062,0,-3.0689,-3.0728,-3.0748,-3.0776,-3.0818,-3.0829,-3.087,-3.0884,-3.0906,-3.0935,-3.0935,-3.0962,-3.0973,-3.1,-3.1008,-3.1047,-3.1055,-3.106,-3.1061,-3.1059,-3.1058,-3.1069,-3.1065,-3.1064,-3.1064,-3.1064,-3.1063,0,-3.0738,-3.0754,-3.0802,-3.0832,-3.0841,-3.087,-3.0895,-3.092,-3.0932,-3.0969,-3.0977,-3.0995,-3.1028,-3.1039,-3.1079,-3.1083,-3.1128,-3.1127,-3.112,-3.112,-3.1144,-3.1141,-3.1224,-3.1235,-3.1171,-3.1171,-3.1172,0,-3.0775,-3.0805,-3.0838,-3.0858,-3.0875,-3.0907,-3.0928,-3.0938,-3.0959,-3.0991,-3.1012,-3.1045,-3.1071,-3.1123,-3.1138,-3.1168,-3.1166,-3.1194,-3.1171,-3.1168,-3.1165,-3.1163,-3.1165,-3.1197,-3.1198,-3.1199,-3.1199,0,-3.0839,-3.0845,-3.0875,-3.0908,-3.0933,-3.0959,-3.0985,-3.1,-3.1014,-3.1038,-3.1072,-3.1092,-3.1133,-3.1164,-3.1194,-3.1208,-3.1205,-3.1206,-3.1213,-3.1211,-3.1205,-3.1207,-3.113,-3.1204,-3.1204,-3.1203,-3.1203,-3.1203,-3.0882,-3.0908,-3.0935,-3.0968,-3.0989,-3.1012,-3.1037,-3.1052,-3.1081,-3.1116,-3.112,-3.1155,-3.1179,-3.1219,-3.1234,-3.1261,-3.1253,-3.1264,-3.1267,-3.1269,-3.127,-3.1202,-3.1267,-3.1267,-3.1267,-3.1266,-3.1266,0,-3.0944,-3.0962,-3.0993,-3.1028,-3.1054,-3.1051,-3.1078,-3.1099,-3.1131,-3.1154,-3.1181,-3.1218,-3.1249,-3.1266,-3.1296,-3.1314,-3.1313,-3.1321,-3.1319,-3.1322,-3.1276,-3.1266,-3.1321,-3.1321,-3.1321,-3.1321,-3.1321,-3.1321,-3.098,-3.1023,-3.1032,-3.1084,-3.11,-3.1137,-3.1152,-3.1173,-3.1191,-3.1234,-3.1259,-3.1271,-3.1291,-3.1322,-3.1349,-3.1353,-3.1364,-3.1372,-3.1375,-3.1332,-3.1326,-3.132,-3.1311,-3.1375,-3.1375,-3.1419,-3.142,-3.142]}]]